Погода в Галахове

Россия / Саратовская область     51°51′14″N   44°25′58″E
темп.,
°C
ветер,
м/с
пор.,
м/с
влажн.,
%
обл.,
%
осадки,
мм/ч
давл.,
гПа
погр.,
м
10 мая, пн
пн1001:00+8ссз61095100 5.3 1012629
04:00+7ссз71294100 7.4 1012461
07:00+7ссз6797100 5.8 1013206
10:00+10с81495100 7.7 1012365
13:00+17св71178100 0.1 1011869
16:00+19всв61261100 0.4 1011702
19:00+14юв51285100 0.9 1014443
22:00+12св4793100 1.3 1014150
11 мая, вт
вт1101:00+13св3993100 0.1 1014236
04:00+10ююв4895100 0.3 1016394
07:00+8ююв3794100 3.8 1019486
10:00+10юв68698 5.1 1022970
13:00+14юв695418 0.0 10231662
16:00+16юв67525 0.0 10241624
19:00+15ююв236397 0.0 1025307
22:00+10ссз1173100 0.0 102610
12 мая, ср
ср1201:00+11ссв3773100 0.0 1025134
04:00+10св4988100 0.3 1024365
07:00+11всв61497100 2.3 1021623
10:00+14вюв9138379 2.6 1020875
13:00+16юв7107689 0.0 10211159
16:00+15ю248498 0.1 1022334
19:00+16юв2480100 0.1 1022103
22:00+15вюв41180100 0.3 1022339
13 мая, чт
чт1301:00+15в51379100 0.0 1021368
04:00+15в51368100 0.0 1020421
07:00+14вюв614725 0.0 1020468
10:00+17вюв71270100 0.1 1020692
13:00+21юв6962100 0.0 10201253
16:00+22юв696273 0.1 10201450
19:00+21юв367136 1.1 1020211
22:00+17вюв41077100 1.3 1020204
14 мая, пт
пт1401:00+16вюв5136925 0.0 1020299
04:00+13вюв4127358 0.0 1021185
07:00+15вюв410725 0.0 1021224
10:00+21юв695354 0.0 1021410
13:00+24юв7104367 0.0 1020865
16:00+25юв7124616 0.0 10201326
19:00+23юв512558 0.0 1019393
22:00+18юв516605 0.0 1020313